Simultaneous Nadir Overpasses (SNOs) Predictions

Prediction of SNOs between GOES-16 and NOAA-19 Satellite Orbit:

Table of predicted SNOs for the next 14.0 days since TLE Epoch: 1/18/2019
Index Date Time (GOES-16) GOES-16 Lat,Lon NOAA-19 Lat,Lon Distance(km) Time Diff (sec)
1 01/19/2019 09:27:17 0.03, -75.21 -0.33, -73.72 170.32 80
2 01/20/2019 09:15:41 0.04, -75.20 -0.94, -70.88 493.22 80
3 01/21/2019 21:48:39 -0.04, -75.19 -0.88, -78.77 409.40 80
4 01/22/2019 21:37:04 -0.05, -75.19 -0.20, -75.95 86.09 80
5 01/23/2019 21:28:07 -0.05, -75.19 0.42, -73.11 237.47 80
6 01/26/2019 09:49:11 0.05, -75.22 0.74, -78.10 328.76 80
7 01/27/2019 09:37:36 0.05, -75.23 0.06, -75.27 4.69 80
8 01/28/2019 09:23:20 0.05, -75.24 -0.61, -72.45 319.51 80
9 01/30/2019 21:47:21 -0.06, -75.26 -0.58, -77.50 256.08 80
10 01/31/2019 21:33:06 -0.06, -75.27 0.10, -74.67 68.80 80




NCC Satellite Simultaneous Nadir Overpasses (SNOs) Prediction Service
